星链-11470 (STARLINK-11470)

导读

STARLINK-11470是美国SpaceX公司星链星座的一员,于北京时间2024年11月24日发射,运行在低地球轨道。作为第二代星链卫星,它配备增强型相控阵天线与激光星间链路,可提供高速低延迟宽带服务,助力星链实现全球覆盖,尤其为基础设施匮乏地区提供网络接入,也进一步扩充了星链星座的网络容量与服务能力。

基本信息
目录编号:
62062
目录名称:
STARLINK-11470
国际标识:
2024-217F
轨道中心:
EARTH
卫星名称:
星链-11470
卫星全名:
星链-11470 (STARLINK-11470)
卫星状态:
在轨 (已飞行563 天)
发射日期:
2024-11-24 UTC
国别 :
美国 (US)
星等 :
--
轨道信息
数据来源 国际轨道数据
星历时间: 2026-06-10T06:46:29+0800
11小时前
查看轨道信息
半长轴: 6737.712km
偏心率: 0.0000092
轨道倾角: 53.158°
近地点辐角 58.933°
升交点赤经 336.469°
平近点角 301.170°
近地点: 359.513km
远地点: 359.637km
周期: 91.734分钟
每日圈数: 15.697631
详细信息
固有亮度:
5
最大亮度:
2.5
卫星平台:
Starlink V1.0
覆盖范围:
全球
运营商:
太空探索技术公司
运营商所在国:
美国
制造商(研发单位):
太空探索技术公司
制造商所在国:
美国
使用方式:
暂无
卫星简介
Starlink 计划是 SpaceX 推出的全球卫星互联网项目,通过发射低轨道卫星,为全球尤其是偏远地区提供高速、低延迟的互联网服务。自 2019 年起,Starlink 已部署数千颗卫星,旨在缩小全球数字鸿沟,推动互联网普及。该项目还为军事、航空等行业提供通信支持,带来广泛经济效益。
2D轨道图
3D轨道图
轨道高度分析图
轨道倾角分析图
轨道综合分析图
查看轨道综合分析图